www.pogodaiklimat.ru

Погода и климат >> Архив погоды >> Иран >> Tabas


ПОГОДА в Tabas

  • Прогноз погоды в Tabas
  • Монитор погоды в Tabas
  • Климат города

АРХИВ ПОГОДЫ в Tabas

Время (UTC), дата Ветер
(напр.,м/с)
 
Видим.   Явления Облачность Т
(С)
Тd
(С)
f
(%)
Тe
(С)
Тes
(С)
Комфортность P
(гПа)
Po
(гПа)
Тmin
(С)
Tmax
(С)
R
(мм)
R24
(мм)
S
(см)
00 7.12 В 3 10 км 4/0
[Ci sp]
+11.1 -3.8 35 +10 +10 1008.0 927.5
03 7.12 штиль 0 10 км 10/5 1050 м
[Frnb As op]
+12.4 -2.7 35 +12 +12 1008.8 928.0 +10.8
06 7.12 СВ 5 10 км 9/3 900 м
[Cu hum As op]
+13.5 -2.6 33 +12 +12 1009.5 928.5
09 7.12 ЮЗ 2 10 км 4/3 900 м
[Sc diur, vesp Ac As]
+19.8 -1.9 23 +20 +24 1008.6 928.3
12 7.12 С 2 15 км 3/3 900 м
[Cu hum]
+22.0 -1.2 21 +21 +22 комфорт 1007.9 927.7
15 7.12 СВ 2 10 км ясно +16.6 -1.4 29 +17 +17 1010.1 929.2 +29.3
18 7.12 СЗ 2 15 км ясно +13.7 -1.5 35 +13 +13 1011.6 930.3
21 7.12 СВ 2 15 км ясно +12.7 -1.8 36 +12 +12 930.9
00 8.12 штиль 0 15 км ясно +9.2 -2.9 42 +9 +9 1012.2 931.4
03 8.12 штиль 0 12 км ясно +8.0 -3.8 43 +8 +8 1014.9 933.0 +7.6
06 8.12 штиль 0 15 км ясно +15.8 -2.2 29 +16 +21 1015.9 934.6
09 8.12 штиль 0 15 км ясно +19.4 -0.9 25 +19 +28 1013.7 932.9
12 8.12 штиль 0 15 км 1/1 1000 м
[Cu hum]
+20.8 -2.7 20 +20 +21 1013.4 932.3
15 8.12 штиль 0 15 км ясно +15.0 -3.4 28 +15 +15 1015.3 933.1 +21.4
18 8.12 В 4 15 км ясно +12.3 -4.1 32 +11 +11 1015.6 934.1
21 8.12 штиль 0 10 км ясно +10.0 -3.5 38 +10 +10 1015.6 934.4
00 9.12 штиль 0 10 км ясно +10.3 -2.6 40 +10 +10 1016.3 935.2
03 9.12 штиль 0 15 км ясно +8.0 -2.4 48 +8 +8 1018.6 936.2 +8.0
06 9.12 ЮЗ 2 18 км ясно +14.0 -1.4 35 +14 +18 1019.2 937.2
09 9.12 С 2 18 км 1/1 1000 м
[Cu hum]
+18.1 -0.5 28 +19 +24 1017.6 936.0
12 9.12 СЗ 4 18 км 1/1 1000 м
[Cu hum]
+18.7 -0.8 27 +19 +19 1016.2 934.8
15 9.12 С 2 18 км ясно +14.4 -0.7 35 +14 +14 1018.2 935.7 +20.2
18 9.12 В 3 10 км ясно +12.2 -1.3 39 +11 +11 1018.2 936.3
21 9.12 В 2 10 км ясно +10.3 -2.6 40 +9 +9 1017.4 935.8
00 10.12 В 2 10 км ясно +9.7 -3.3 40 +9 +9 1017.3 935.7
03 10.12 штиль 0 10 км 8/4 1050 м
[Sc As op]
+9.0 -2.2 45 +9 +9 1019.1 936.7 +5.7
06 10.12 ЮЗ 2 10 км 3/1 900 м
[Cu hum Ac As]
+12.6 -1.4 38 +12 +15 1020.2 937.9
09 10.12 З 2 15 км 3/1 900 м
[Cu hum Ac As]
+17.0 +0.3 32 +17 +22 1017.4 935.7
12 10.12 СЗ 2 15 км 3/1 900 м
[Cu med, cong Ac As]
+19.3 -1.1 25 +20 +21 1015.9 934.5
15 10.12 СЗ 2 15 км 4/0
[Ac trans]
+14.7 -1.6 33 +15 +15 1017.6 935.4 +20.0
18 10.12 В 2 15 км ясно +11.3 -3.2 36 +11 +11 1017.5 935.3
21 10.12 ЮВ 2 15 км ясно +11.0 -2.6 38 +10 +10 1016.7 934.9
00 11.12 штиль 0 15 км ясно +9.4 -2.3 44 +9 +9 1016.6 935.1
03 11.12 штиль 0 15 км 4/4 1350 м
[Sc]
+8.4 -2.8 45 +8 +8 1018.8 936.4 +8.0
06 11.12 штиль 0 15 км 3/0
[Ac trans]
+14.0 -1.8 34 +14 +18 1020.6 938.3
09 11.12 штиль 0 15 км 1/1 1050 м
[Sc]
+17.4 -1.1 28 +17 +25 1018.7 937.0
12 11.12 штиль 0 15 км 1/1 1050 м
[Sc]
+17.4 -1.1 28 +17 +19 1018.9 937.0
15 11.12 штиль 0 15 км ясно +13.7 -1.6 35 +14 +14 1019.8 937.2 +20.0
18 11.12 В 3 15 км ясно +11.7 -2.5 37 +11 +11 1019.6 937.5
21 11.12 штиль 0 15 км ясно +9.3 -2.8 42 +9 +9 1019.3 937.4
00 12.12 штиль 0 15 км ясно +8.6 -3.2 43 +8 +8 1019.8 937.7
03 12.12 штиль 0 15 км ясно +6.4 -3.0 51 +6 +6 1021.7 938.6 +6.2
06 12.12 штиль 0 15 км ясно +13.1 -2.3 34 +13 +18 1022.8 940.3
09 12.12 ЮЗ 2 15 км ясно +17.2 -1.9 27 +18 +24 1020.5 938.4
12 12.12 штиль 0 15 км ясно +21.3 -3.8 18 +20 +22 1018.9 937.4
15 12.12 С 2 15 км ясно +13.9 -2.8 31 +14 +14 1021.3 938.3 +21.7
18 12.12 В 2 15 км ясно +11.1 -6.1 29 +11 +11 1020.9 938.4
21 12.12 В 3 15 км ясно +11.0 -7.8 26 +10 +10 1020.1 938.1
00 13.12 В 2 15 км ясно +7.8 -7.1 34 +7 +7 1020.1 938.3
03 13.12 штиль 0 15 км ясно +5.5 -7.2 39 +5 +5 1021.9 938.7 +5.5
06 13.12 Ю 2 20 км ясно +13.1 -5.6 27 +13 +17 1022.9 940.3
09 13.12 ЮЗ 2 20 км ясно +16.2 -4.4 24 +16 +23 1020.4 938.4
12 13.12 штиль 0 20 км ясно +19.7 -5.0 18 +19 +20 1019.0 937.1
15 13.12 СВ 2 20 км ясно +13.9 -5.7 25 +14 +14 1020.8 937.7 +20.3
18 13.12 В 3 10 км ясно +11.7 -8.2 24 +11 +11 1020.7 938.3
21 13.12 ЮВ 2 10 км ясно +8.4 -8.3 30 +7 +7 938.3

 

Местоположение метеостанции Tabas (Иран): широта 33.60 долгота 56.92 высота над уровнем моря 711 м.

В архиве по умолчанию представлена погода в Tabas за последнюю неделю. Архивные данные за месяц целиком и за предыдущие месяцы, начиная с января 2011 года, Вы можете получить, выбрав интересующий диапазон дат из раскрывающегося списка и нажав кнопку "Ввод!".


*Определитесь, кто Вы:
робот инопланетянин человек

Внимание! Время в таблицах - всемирное. Для получения местного времени необходимо прибавить поправку, которая в Tabas равна 3.5 ч.

Смотрите также архив погоды в соседних городах и на ближайших метеорологических станциях:

Погода в Ferdous (Иран) (125 км)
Погода в Khor (Иран) (171 км)
Погода в Birjand (Иран) (227 км)
Погода в Kashmar (Иран) (228 км)
Погода в Torbat-Heydarieh (Иран) (281 км)
Погода в Sabzevar (Иран) (299 км)
Погода в Yazd (Иран) (311 км)
Погода в Shahrud (Иран) (361 км)
Погода в Nehbandan (Иран) (371 км)
Погода в Kerman (Иран) (373 км)

Пояснения к столбцам:

Ветер - указаны скорость ветра в м/с - средняя за 10 мин, порывы в срок и между сроками (в фигурных скобках) и направление, откуда дует ветер: С - северный, СВ - северо-восточный, В - восточный, ЮВ - юго-восточный, Ю - южный, ЮЗ - юго-западный, З - западный, СЗ - северо-западный.
Видимость - горизонтальная дальность видимости в метрах или километрах. При видимости от 1 до 10 км при отсутствии осадков обычно наблюдается дымка, при ухудшении видимости до 1 км и менее - туман. В сухую погоду видимость может ухудшаться дымом, пылью или мглою.
Явления - указаны атмосферные явления, наблюдавшиеся в срок или в последний час перед сроком; фигурными скобками обозначены явления, наблюдавшиеся между сроками (за 1-3 часа до срока); квадратными скобками обозначены град или гололедные отложения с указанием их диаметра в мм.
Облачность - указаны через наклонную черту общая и нижняя облачность в баллах и высота нижней границы облаков в метрах; квадратными скобками обозначены формы облаков: Ci - перистые, Cs - перисто-слоистые, Cc - перисто-кучевые, Ac - высококучевые, As - высокослоистые, Sc - слоисто-кучевые, Ns - слоисто-дождевые, Cu - кучевые, Cb - кучево-дождевые. Подробнее классификацию облаков см. в Атласе облаков (PDF).
T - Температура воздуха - температура, измеренная на высоте 2 м над землей.
Td - Температура точки росы - температура, при понижении до которой содержащийся в воздухе водяной пар достигнет насыщения.
f - Относительная влажность воздуха - влажноcть воздуха, измеренная на высоте 2 м над землей.
Te - Эффективная температура - температура, которую ощущает одетый по сезону человек в тени. Характеристика душности погоды. При расчете учитывается влияние влажности воздуха и скорости ветра на теплоощущения человека.
Tes - Эффективная температура на солнце - температура, которую ощущает человек, с поправкой на солнечный нагрев. Характеристика знойности погоды. Зависит от высоты солнца над горизонтом, облачности и скорости ветра. Ночью, в пасмурную погоду, а также при ветре 12 м/с и более поправка равна нулю.
P - Атмосферное давление - приведенное к уровню моря атмосферное давление.
Po - Атмосферное давление - измеренное на уровне метеостанции атмосферное давление.
Tmin - Минимальная температура - минимум температуры воздуха на высоте 2 м над землей.
Tmax - Максимальная температура - максимум температуры воздуха на высоте 2 м над землей.
R - Количество осадков - Количество выпавших осадков за период времени, мм. При наведении курсора мыши на число - период времени, за который выпало указанное количество осадков.
R24 - Количество осадков - Количество выпавших осадков за 24 часа, мм.
S - Снежный покров - Высота снежного покрова, см. При наведении курсора мыши на число - состояние снежного покрова и степень покрытия местности в баллах.